User: anonymous   Login
Location: Carson
(33.8314°N, 118.2820°W)
Time: 07:06:25
(UTC+00:00)
Language:

SL-08 ROCKET BODY - Orbit

View from above orbital plane
View from above orbital plane
View from above satellite
View from above satellite

Ground track
Ground track

The orbit data is extracted from the following two-line orbital elements,

1 28522U 05002B   21058.93836938  .00000123  00000-0  87368-4 0  9993
2 28522  82.9448  50.9052 0045882   8.6199 351.5742 13.89596078816780
Epoch (UTC): 27 February 2021 22:31:15
Eccentricity: 0.0045882
inclination: 82.9448°
perigee height: 896 km
apogee height: 963 km
right ascension of ascending node: 50.9052°
argument of perigee: 8.6199°
revolutions per day: 13.89596078
mean anomaly at epoch: 351.5742°
orbit number at epoch: 81678

The dashed part of the orbit path shows where the satellite is in the earth's shadow,  

DLR